Location: Newark
(42.7133°N, 87.7910°W)
Time: 13:12:06
(UTC+00:00)

Tiros 1 - Pass Details

Date: 27 September 2019
Orbit: 630 x 664 km, 48.4° (Epoch: 16 October)

Event Time Altitude Azimuth Distance (km) Brightness Sun altitude
Rises 22:02:10 0° 294° (WNW) 2,957 11.3 16.8°
Reaches altitude 10° 22:04:35 10° 289° (WNW) 2,038 10.7 16.4°
Maximum altitude 22:09:03 46° 216° (SW) 857 8.7 15.6°
Drops below altitude 10° 22:13:29 10° 143° (SE) 2,010 9.5 14.8°
Sets 22:15:51 0° 138° (SE) 2,910 10.3 14.4°
